AirNav   Everest Fuels
 
 769 users online  

CO12 Van Aire Airport
Brighton, Colorado, USA

GOING TO BRIGHTON?


FAA INFORMATION EFFECTIVE 19 MAY 2022

Location

FAA Identifier: CO12
Lat/Long: 39-59-00.1700N 104-42-16.1200W
39-59.002833N 104-42.268667W
39.9833806,-104.7044778
(estimated)
Elevation: 5055 ft. / 1541 m (estimated)
Variation: 11E (1985)
From city: 5 miles E of BRIGHTON, CO
Time zone: UTC -6 (UTC -7 during Standard Time)
Zip code: 80601

Airport Operations

Airport use: Private use. Permission required prior to landing
Activation date: 06/1970
Control tower: no
ARTCC: DENVER CENTER
FSS: DENVER FLIGHT SERVICE STATION
Attendance: UNATNDD
Wind indicator: yes
Segmented circle: yes
Lights: ACTVT MIRL RY 12/30 - 122.9.

Airport Communications

WX ASOS at DEN (7 nm S): PHONE 303-342-1920
WX AWOS-3 at CFO (14 nm SE): 119.025 (303-261-9104)
WX AWOS-3 at EIK (16 nm W): 133.825 (303-604-4339)
WX AWOS-3 at BJC (20 nm W): PHONE 720-887-8067

Nearby radio navigation aids

VOR radial/distance  VOR name  Freq  Var
DVVr317/6.5MILE HIGH VORTAC114.7008E
DENr341/10.4DENVER VOR/DME117.9008E
FQFr337/18.0FALCON VORTAC116.3011E
BJCr067/20.4JEFFCO VOR/DME115.4011E
GLLr180/32.0GILL VOR/DME114.2013E

Airport Services

Fuel available: 100LL
Airframe service: NONE
Powerplant service: NONE

Runway Information

Runway 12/30

Dimensions: 3700 x 50 ft. / 1128 x 15 m
Surface: asphalt
Runway edge lights: medium intensity
RUNWAY 12  RUNWAY 30
Traffic pattern: leftright
Displaced threshold: 331 ft.294 ft.

Airport Ownership and Management from official FAA records

Ownership: Privately-owned
Owner: VAN AIRE SKYPORT CORP
PO BOX 55
BRIGHTON, CO 80601
Manager: BRANDON JEWETT
PO BOX 55
BRIGHTON, CO 80601
Phone 303-521-3238

Airport Operational Statistics

Aircraft based on the field: 89
Single engine airplanes: 85
Multi engine airplanes: 4
    

Additional Remarks

ARPT IN RESIDENTIAL SUBDIVISION. ROADS IN CLOSE PROXIMITY BOTH ENDS OF RWY.
PRIM USE OF RWY IS FOR HOME OWNERS AT ARPT. PPR FOR USE. CTC VANAIRESKYPORT.ORG FOR WAIVER AND INSTRUCTIONS.
RWY 12/30 SINGLE LGT VASI BOTH RWY APCHS.
TPA 5800 FT.
FOR CD CTC DENVER APCH AT 303-342-1916.

Instrument Procedures

There are no published instrument procedures at CO12.

Some nearby airports with instrument procedures:

KDEN - Denver International Airport (7 nm S)
KCFO - Colorado Air and Space Port Airport (14 nm SE)
KEIK - Erie Municipal Airport (16 nm W)
KBKF - Buckley Space Force Base (17 nm S)
KBJC - Rocky Mountain Metro Airport (20 nm W)
 
Loc | Ops | Rwys | IFR | FBO | Links
Com | Nav | Svcs | Stats | Notes

AirBoss

 
Area around CO12 (Van Aire Airport)
 
Road maps at: MapQuest Bing Google
 
Aerial photo
WARNING: Photo may not be current or correct
Aerial photo of CO12 (Van Aire Airport)
Photo by Brandon Jewett.
Taken in the Summer of 2008

Do you have a better or more recent aerial photo of Van Aire Airport that you would like to share? If so, please send us your photo.

 
Sectional chart

 
Airport distance calculator
Flying to Van Aire Airport? Find the distance to fly.

From to CO12

Sunrise and sunset
Times for 19-May-2022
 Local
(UTC-6)
 Zulu
(UTC)
Morning civil twilight05:1011:10
Sunrise05:4111:41
Sunset20:1002:10
Evening civil twilight20:4102:41

Current date and time
Zulu (UTC)  19-May-2022 11:17:07
Local (UTC-6)  19-May-2022 05:17:07
 
METAR
KDEN 
9nm S 
191053Z 23008KT 10SM CLR 17/01 A2979 RMK AO2 SLP004 T01670006
KCFO 
14nm SE 
191055Z AUTO 22012KT 10SM CLR 18/00 A2981 RMK AO2 T01800000
KEIK 
16nm W 
191055Z AUTO 17005KT 10SM CLR 14/M01 A2977 RMK AO2 T01351008 PWINO
KBKF 
16nm S 
190858Z 19011KT 10SM FEW110 SCT220 14/03 A2984 RMK AO2A SLP031 T01430031 57026
KBJC 
19nm W 
191055Z AUTO 24015KT 10SM CLR 20/M05 A2981 RMK AO2
TAF
KDEN 
9nm S 
190900Z 1909/2012 21013KT P6SM FEW120 FEW220 FM191500 24012KT P6SM SCT220 FM191800 26015G25KT P6SM FEW100 SCT220 FM192100 27020G32KT P6SM FEW110 SCT220 FM200200 25012KT P6SM SCT220 FM200400 03017G27KT P6SM SCT100 BKN180 FM200900 03019KT P6SM OVC050
KBKF 
16nm S 
190900Z 1909/2015 VRB06KT 9999 FEW270 510073 QNH2978INS BECMG 1916/1917 26020G30KT 9999 FEW290 520063 QNH2971INS BECMG 1918/1919 26020G26KT 9999 FEW310 530054 QNH2948INS BECMG 2002/2003 22006KT 9999 FEW310 510053 QNH2947INS BECMG 2006/2007 03020G25KT 9999 FEW080 520043 QNH2960INS BECMG 2007/2008 03009KT 9999 BKN022 510043 QNH2964INS BECMG 2008/2009 VRB06KT 9999 OVC030 510043 QNH2965INS BECMG 2009/2010 VRB06KT 9999 OVC022 510043 QNH2964INS BECMG 2011/2012 06015KT 9999 OVC013 520053 QNH2966INS BEC
KBJC 
19nm W 
190536Z 1906/2006 27007KT P6SM FEW220 FM191500 27012G20KT P6SM BKN220 FM191700 27018G28KT P6SM FEW100 SCT220 FM192100 28020G32KT P6SM FEW110 SCT220 FM200200 25012KT P6SM SCT220 FM200400 03017G27KT P6SM SCT100 BKN180
NOTAMs
Click for the latest NOTAMs
NOTAMs are issued by the DoD/FAA and will open in a separate window not controlled by AirNav.

 

 
 

Would you like to see your business listed on this page?

 If your business provides an interesting product or service to pilots, flight crews, aircraft, or users of the Van Aire Airport, you should consider listing it here.  To start the listing process, click on the button below
 
Add a business
 

Other Pages about Van Aire Airport

www.ahico.com/...
 
Update a link
 
Copyright © AirNav, LLC. All rights reserved. Privacy Policy  Contact